CZ-6A DEB, 56589

Orbit data source: Space-Track

CZ-6A DEB, 56589 is space debris in SSO originally from a launch on Fri, 11 Nov 2022 UTC launched from the Taiyaun Space Center, China (TSC). Debris objects in space refer to the collection of defunct objects orbiting the Earth. Examples of debris include non-operational satellites, rocket bodies, and fragments generated from explosions, collisions, or faulty payload assembly.

Loading next visibility...
Identifier
56589, 2022-151ADM
Orbit
SSO
Country
Flag of CNCN / PRC
Related business
Manufacturer
SAST
Mission
Spacecraft
Bus & Motor
Unknown
Mass
Unknown
Launch date (UTC)
2022-11-11 (3 years ago)
Launch vehicle
Unknown
Launch site
Taiyaun Space Center, China (TSC)
Object type
Payload
Rocket body
Debris
Shape & HBR
Unknown shape, 0.1 m
Radar Cross Section
Small (<0.1 m²)

Expand to show TLE details & history
Last TLE update: 12 hours ago

TLE from 12 hours ago
0 CZ-6A DEB
1 56589U 22151ADM 25355.35033626  .00001834  00000-0  11886-2 0  9994
2 56589  98.8961 320.9332 0202527 176.6230 183.6354 13.94371875139811
Epoch: 2025-12-21T08:24Z
TLE epoch observation values (Epoch: 2025-12-21T08:24:29.052Z)
Latitude
-0°
Longitude
104.64811°
Altitude
1,063.64 km
Speed
7.246 km/s
True Right ascension
21h 23m 43s
True Declination
0° 00' 00"
Sunlit
Object was in daylight at epoch
Visualization orbit readout
Latitude
Unknown
Longitude
Unknown
Altitude
Unknown
Speed
Unknown
Apparent Right ascension
Unknown
Apparent Declination
Unknown
Sunlit
N/A
Visualization observer readout
Local Sidereal Time
19:30:32
Azimuth
Unknown
Elevation
Unknown
Doppler factor
Unknown
Orbital elements
Apogee altitude
1,058.166 km
Perigee altitude
762.934 km
Semi-major axis
7,288.687 km
Eccentricity
0.02025
Inclination
98.8961°
RAAN
320.9332°
Arg. of periapsis
176.623°
True anomaly
183.49188°
Mean anomaly
183.6354°
Eccentric anomaly
183.56328°
Mean motion
3.48794 °/min
Orbital period
103.21 mins
BSTAR
0.0011886
Loading maneuver chart data...
Computing Atmospheric mass density...
Loading historical data...
Loading historical data...
Loading historical data...
Loading historical data...
Loading historical data...
Loading historical data...
Loading historical data...

Documentation

Showing up to 5 results
|